This is the latest recevied weather packets stored in our database for station/object KG7BDA. If no packets are shown the sender has not sent any weather packets the latest 10 day(s).
| Time | Temp. | Humidity | Pressure | Rain* | Wind** | Luminosity | Snow |
|---|---|---|---|---|---|---|---|
| 1778074041 | 6.67° C | 59% | 1019.9 hPa | 0 mm | - | - | - |
| 1778073682 | 6.67° C | 58% | 1019.9 hPa | 0 mm | - | - | - |
| 1778073321 | 6.11° C | 59% | 1020 hPa | 0 mm | - | - | - |
| 1778072962 | 6.11° C | 59% | 1019.7 hPa | 0 mm | - | - | - |
| 1778072602 | 6.67° C | 58% | 1019.6 hPa | 0 mm | - | - | - |
| 1778072242 | 6.11° C | 58% | 1019.5 hPa | 0 mm | - | - | - |
| 1778071882 | 6.11° C | 58% | 1019.3 hPa | 0 mm | - | - | - |
| 1778071522 | 6.11° C | 58% | 1019.2 hPa | 0 mm | - | - | - |
| 1778071162 | 6.11° C | 58% | 1019.2 hPa | 0 mm | - | - | - |
| 1778070802 | 5.56° C | 59% | 1019.1 hPa | 0 mm | - | - | - |
| 1778070442 | 5.56° C | 59% | 1019.2 hPa | 0 mm | - | - | - |
| 1778070081 | 5.56° C | 60% | 1019.2 hPa | 0 mm | - | - | - |
| 1778069722 | 5.56° C | 59% | 1019.1 hPa | 0 mm | - | - | - |
| 1778069363 | 5.56° C | 59% | 1019 hPa | 0 mm | - | - | - |
| 1778069002 | 6.11° C | 58% | 1018.8 hPa | 0 mm | - | - | - |
| 1778068642 | 6.11° C | 57% | 1018.7 hPa | 0 mm | - | - | - |
| 1778068282 | 6.67° C | 56% | 1018.8 hPa | 0 mm | - | - | - |
| 1778067922 | 6.67° C | 56% | 1018.8 hPa | 0 mm | - | - | - |
| 1778067562 | 6.67° C | 55% | 1018.6 hPa | 0 mm | - | - | - |
| 1778067203 | 6.67° C | 56% | 1018.7 hPa | 0 mm | - | - | - |
| 1778066842 | 5.56° C | 60% | 1018.6 hPa | 0 mm | - | - | - |
| 1778066481 | 5.56° C | 61% | 1018.7 hPa | 0 mm | - | - | - |
| 1778066122 | 5.56° C | 61% | 1018.6 hPa | 0 mm | - | - | - |
| 1778065762 | 5.56° C | 60% | 1018.5 hPa | 0 mm | - | - | - |
| 1778065401 | 6.11° C | 59% | 1018.5 hPa | 0 mm | - | - | - |
* Rain latest hour (hover to see other rain measurements)
** Current wind speed in m/s (hover to see current wind gust speed)